CUBESAT XI-V

Last updated on Mon Nov 03 2025 00:03:21 GMT+0000 (Coordinated Universal Time)

1 28895U 05043F 25306.39794900 .00002303 00000+0 37772-3 0 9997 2 28895 98.2696 92.8070 0014015 200.9386 159.1248 14.71644563 68385
UTC large
Height (km)
Speed (km/s)
/
Latitude / Longitude
Inclination (degrees)
Orbital Period (minutes)
Azimuth
Elevation
Range (km)
Doppler Factor

Next 0 passes for location: London (51.5072 / 0.1276)

Sorry there are no passes over London.